Retour au catalogue

FENGYUN 1C DEB

ActifPO
NORAD 30057·DEBRIS·🇨🇳 China

Lancé May 10, 1999 depuis Taiyuan Satellite Launch Center

Loading…

Prochains Passages (prochaines 24 heures)

TLE

FraisSource: Space-Track

Époque: Sep 14, 2026, 14:27 UTC

1 30057U 99025PJ  26257.60255321  .00000705  00000-0  78260-3 0  9994
2 30057  98.8629 304.8445 0291823 153.0453   8.9816 13.57667228969781

Suivez FENGYUN 1C DEB en temps réel avec AllMySat

Download on the App Store